Location: Kunchanapalle
(16.4623°N, 80.6176°E)
Time: 18:16:00
(UTC+00:00)

CZ-2C R/B - Pass Details

Date: 13 August 2020
Orbit: 639 x 705 km, 98.4° (Epoch: 17 September)

Event Time Altitude Azimuth Distance (km) Brightness Sun altitude
Rises 14:35:47 0° 11° (N) 2,978 7.2 -21.8°
Reaches altitude 10° 14:38:01 10° 11° (N) 2,056 6.4 -22.3°
Maximum altitude 14:42:29 87° 285° (WNW) 650 3.5 -23.2°
Enters shadow 14:44:27 33° 194° (SSW) 1,075 4.6 -23.7°
